Las Cruces, NM

1:07 AM MDT on May 26, 2018 (GMT -0600)
Las Cruces International

Weather History for KLRU - October, 2011

Change the Weather History Date:

Thursday, October 6, 2011

  Actual Average Record
Temperature  
Mean Temperature 68 °F -  
Max Temperature 80 °F 78 °F 89 °F (1997)
Min Temperature 55 °F 55 °F 46 °F (2013)
Cooling Degree Days 2    
Growing Degree Days 18 (Base 50)    
Moisture  
Dew Point 34 °F    
Average Humidity 32    
Maximum Humidity 63    
Minimum Humidity 12    
Precipitation  
Precipitation 0.00 in - - ()
Sea Level Pressure  
Sea Level Pressure 29.89 in    
Wind  
Wind Speed 14 mph (SSW)    
Max Wind Speed 31 mph    
Max Gust Speed 43 mph    
Visibility 10 miles    
Events      
Averages and records for this station are not official NWS values.
T = Trace of Precipitation, MM = Missing Value Source: NWS Daily Summary

Daily Weather History Graph

Daily Weather History Graph

Search for Another Location

Airport or City:

Astronomy

Oct. 06, 2011 Rise Set
Actual Time 7:04 AM MDT 6:46 PM MDT
Civil Twilight 6:40 AM MDT 7:10 PM MDT
Nautical Twilight 6:11 AM MDT 7:39 PM MDT
Astronomical Twilight 5:43 AM MDT 8:07 PM MDT
Moon 3:46 PM MDT (10/6) 2:13 AM MDT (10/6)
Length of Visible Light 12h 30m
Length of Day
11h 41m
Waxing Gibbous, 76% of the Moon is Illuminated
Oct 6
Waxing Gibbous
Oct 11
Full
Oct 19
Last Quarter
Oct 26
New
Nov 2
First Quarter

Hourly Weather History & Observations

Time (MDT) Temp. Dew Point Humidity Pressure Visibility Wind Dir Wind Speed Gust Speed Precip Events Conditions
12:15 AM 68.0 °F 42.8 °F 40% 29.95 in 10.0 mi SW 15.0 mph - N/A   Clear
12:35 AM 68.0 °F 42.8 °F 40% 29.95 in 10.0 mi SW 12.7 mph - N/A   Clear
12:55 AM 68.0 °F 42.8 °F 40% 29.94 in 10.0 mi SW 11.5 mph - N/A   Clear
1:15 AM 68.0 °F 42.8 °F 40% 29.94 in 10.0 mi SW 12.7 mph - N/A   Clear
1:35 AM 66.2 °F 42.8 °F 43% 29.94 in 10.0 mi SW 10.4 mph 18.4 mph N/A   Clear
1:55 AM 64.4 °F 42.8 °F 45% 29.94 in 10.0 mi SSW 6.9 mph - N/A   Clear
2:15 AM 64.4 °F 42.8 °F 45% 29.93 in 10.0 mi SSW 6.9 mph - N/A   Clear
2:35 AM 64.4 °F 42.8 °F 45% 29.92 in 10.0 mi SSW 6.9 mph - N/A   Clear
2:55 AM 64.4 °F 42.8 °F 45% 29.92 in 10.0 mi South 5.8 mph - N/A   Clear
3:15 AM 62.6 °F 42.8 °F 48% 29.91 in 10.0 mi South 9.2 mph - N/A   Clear
3:35 AM 64.4 °F 42.8 °F 45% 29.91 in 10.0 mi SW 9.2 mph 16.1 mph N/A   Clear
3:55 AM 62.6 °F 42.8 °F 48% 29.90 in 10.0 mi SSW 9.2 mph - N/A   Clear
4:15 AM 62.6 °F 44.6 °F 52% 29.90 in 10.0 mi SSW 8.1 mph - N/A   Clear
4:35 AM 62.6 °F 42.8 °F 48% 29.90 in 10.0 mi SSW 8.1 mph - N/A   Clear
4:55 AM 60.8 °F 42.8 °F 52% 29.90 in 10.0 mi SSW 6.9 mph - N/A   Clear
5:15 AM 59.0 °F 42.8 °F 55% 29.90 in 10.0 mi South 8.1 mph - N/A   Clear
5:35 AM 59.0 °F 42.8 °F 55% 29.90 in 10.0 mi South 6.9 mph - N/A   Clear
5:55 AM 60.8 °F 42.8 °F 52% 29.90 in 10.0 mi South 8.1 mph - N/A   Clear
6:15 AM 59.0 °F 42.8 °F 55% 29.90 in 10.0 mi South 5.8 mph - N/A   Clear
6:35 AM 59.0 °F 42.8 °F 55% 29.90 in 10.0 mi South 8.1 mph - N/A   Clear
6:55 AM 57.2 °F 42.8 °F 59% 29.91 in 10.0 mi SSE 6.9 mph - N/A   Clear
7:15 AM 55.4 °F 42.8 °F 63% 29.91 in 10.0 mi South 6.9 mph - N/A   Clear
7:35 AM 55.4 °F 42.8 °F 63% 29.91 in 10.0 mi South 4.6 mph - N/A   Clear
7:55 AM 59.0 °F 42.8 °F 55% 29.91 in 10.0 mi Calm Calm - N/A   Clear
8:15 AM 60.8 °F 41.0 °F 48% 29.92 in 10.0 mi SSW 4.6 mph - N/A   Clear
8:35 AM 62.6 °F 41.0 °F 45% 29.92 in 10.0 mi South 6.9 mph - N/A   Clear
8:55 AM 64.4 °F 41.0 °F 42% 29.92 in 10.0 mi South 10.4 mph - N/A   Clear
9:15 AM 66.2 °F 41.0 °F 40% 29.92 in 10.0 mi SSW 9.2 mph - N/A   Clear
10:35 AM 71.6 °F 32.0 °F 23% 29.92 in 10.0 mi SW 19.6 mph 25.3 mph N/A   Clear
10:55 AM 73.4 °F 30.2 °F 20% 29.92 in 10.0 mi SW 26.5 mph 32.2 mph N/A   Clear
11:15 AM 73.4 °F 26.6 °F 18% 29.91 in 10.0 mi SW 25.3 mph 32.2 mph N/A   Clear
11:35 AM 75.2 °F 26.6 °F 17% 29.90 in 10.0 mi SW 25.3 mph 32.2 mph N/A   Clear
11:55 AM 77.0 °F 23.0 °F 13% 29.90 in 10.0 mi SW 26.5 mph 33.4 mph N/A   Clear
12:15 PM 77.0 °F 23.0 °F 13% 29.88 in 10.0 mi SSW 24.2 mph 33.4 mph N/A   Clear
12:35 PM 78.8 °F 21.2 °F 12% 29.88 in 10.0 mi SW 27.6 mph 36.8 mph N/A   Clear
12:55 PM 78.8 °F 21.2 °F 12% 29.87 in 10.0 mi SW 31.1 mph 36.8 mph N/A   Clear
1:15 PM 78.8 °F 21.2 °F 12% 29.86 in 10.0 mi SW 27.6 mph 39.1 mph N/A   Clear
1:35 PM 78.8 °F 23.0 °F 13% 29.85 in 10.0 mi SSW 29.9 mph 40.3 mph N/A   Clear
1:55 PM 78.8 °F 23.0 °F 13% 29.84 in 10.0 mi SW 26.5 mph 38.0 mph N/A   Clear
2:15 PM 80.6 °F 23.0 °F 12% 29.84 in 10.0 mi SW 26.5 mph 38.0 mph N/A   Clear
2:35 PM 80.6 °F 23.0 °F 12% 29.83 in 10.0 mi SW 25.3 mph 36.8 mph N/A   Clear
2:55 PM 80.6 °F 23.0 °F 12% 29.83 in 10.0 mi SW 31.1 mph 41.4 mph N/A   Clear
3:15 PM 80.6 °F 23.0 °F 12% 29.82 in 10.0 mi SW 27.6 mph 35.7 mph N/A   Clear
3:35 PM 80.6 °F 23.0 °F 12% 29.82 in 10.0 mi SW 29.9 mph 40.3 mph N/A   Clear
3:55 PM 80.6 °F 23.0 °F 12% 29.82 in 10.0 mi SW 31.1 mph 42.6 mph N/A   Clear
4:15 PM 80.6 °F 23.0 °F 12% 29.82 in 10.0 mi SW 21.9 mph 36.8 mph N/A   Clear
4:35 PM 80.6 °F 23.0 °F 12% 29.81 in 10.0 mi SW 20.7 mph 32.2 mph N/A   Clear
4:55 PM 80.6 °F 24.8 °F 13% 29.81 in 10.0 mi SW 23.0 mph 32.2 mph N/A   Clear
5:15 PM 80.6 °F 24.8 °F 13% 29.81 in 10.0 mi SW 19.6 mph 33.4 mph N/A   Clear
5:35 PM 78.8 °F 23.0 °F 13% 29.81 in 10.0 mi SW 26.5 mph 33.4 mph N/A   Clear
5:55 PM 78.8 °F 23.0 °F 13% 29.81 in 10.0 mi SSW 28.8 mph 34.5 mph N/A   Clear
6:15 PM 77.0 °F 23.0 °F 13% 29.81 in 10.0 mi SW 26.5 mph 34.5 mph N/A   Clear
6:35 PM 77.0 °F 24.8 °F 14% 29.82 in 10.0 mi SW 21.9 mph 32.2 mph N/A   Clear
6:55 PM 75.2 °F 26.6 °F 17% 29.83 in 10.0 mi SSW 20.7 mph 29.9 mph N/A   Clear
7:15 PM 73.4 °F 26.6 °F 18% 29.83 in 10.0 mi SW 18.4 mph 24.2 mph N/A   Clear
7:35 PM 73.4 °F 26.6 °F 18% 29.83 in 10.0 mi SW 17.3 mph 25.3 mph N/A   Clear
7:55 PM 73.4 °F 26.6 °F 18% 29.84 in 10.0 mi SW 13.8 mph - N/A   Clear
8:15 PM 71.6 °F 26.6 °F 19% 29.86 in 10.0 mi SSW 11.5 mph 16.1 mph N/A   Clear
8:35 PM 71.6 °F 26.6 °F 19% 29.87 in 10.0 mi SSW 10.4 mph - N/A   Clear
8:55 PM 69.8 °F 26.6 °F 20% 29.87 in 10.0 mi SSW 10.4 mph - N/A   Clear
9:15 PM 69.8 °F 26.6 °F 20% 29.88 in 10.0 mi SW 15.0 mph - N/A   Clear
9:35 PM 69.8 °F 26.6 °F 20% 29.87 in 10.0 mi WSW 18.4 mph - N/A   Clear
9:55 PM 69.8 °F 26.6 °F 20% 29.87 in 10.0 mi WSW 16.1 mph - N/A   Clear
10:15 PM 69.8 °F 28.4 °F 21% 29.88 in 10.0 mi WSW 17.3 mph 21.9 mph N/A   Clear
10:35 PM 69.8 °F 28.4 °F 21% 29.88 in 10.0 mi WSW 16.1 mph 19.6 mph N/A   Clear
10:55 PM 69.8 °F 28.4 °F 21% 29.89 in 10.0 mi WSW 17.3 mph - N/A   Clear
11:15 PM 68.0 °F 28.4 °F 23% 29.88 in 10.0 mi WSW 19.6 mph 25.3 mph N/A   Clear
11:35 PM 68.0 °F 30.2 °F 24% 29.88 in 10.0 mi WSW 16.1 mph 25.3 mph N/A   Clear
11:55 PM 64.4 °F 30.2 °F 28% 29.88 in 10.0 mi WSW 12.7 mph - N/A   Clear